Overview Statistics Trail Chart Weather Telemetry Raw packets
 

This is the latest recevied weather packets stored in our database for station/object IU5JAE-13. If no packets are shown the sender has not sent any weather packets the latest 10 day(s).

<< 1 2 3 4 5 >>
Time Temp. Humidity Pressure Rain* Wind** Luminosity Snow
1788700523 31.11° C 52% 1023 hPa 0 mm - 434 W/m² -
1788699921 31.11° C 53% 1023.2 hPa 0 mm - 446 W/m² -
1788699318 30.56° C 54% 1023.1 hPa 0 mm - 453 W/m² -
1788698716 31.11° C 53% 1023.2 hPa 0 mm - 457 W/m² -
1788698134 31.67° C 53% 1023.1 hPa 0 mm - 503 W/m² -
1788697531 31.67° C 52% 1023 hPa 0 mm - 525 W/m² -
1788696929 31.67° C 52% 1023.1 hPa 0 mm - 539 W/m² -
1788696327 31.11° C 53% 1023.2 hPa 0 mm - 554 W/m² -
1788695724 31.67° C 52% 1023 hPa 0 mm - 566 W/m² -
1788695122 31.11° C 52% 1022.9 hPa 0 mm - 569 W/m² -
1788694520 31.11° C 52% 1023.1 hPa 0 mm - 572 W/m² -
1788693917 31.11° C 53% 1023.1 hPa 0 mm - 576 W/m² -
1788693334 31.11° C 53% 1023.1 hPa 0 mm - 579 W/m² -
1788692732 31.11° C 54% 1023.1 hPa 0 mm - 579 W/m² -
1788692130 30.56° C 55% 1023.1 hPa 0 mm - 581 W/m² -
1788691527 30.56° C 56% 1023.1 hPa 0 mm - 581 W/m² -
1788690925 30° C 57% 1023.1 hPa 0 mm - 579 W/m² -
1788690322 29.44° C 59% 1023.2 hPa 0 mm - 573 W/m² -
1788689720 28.89° C 64% 1023.3 hPa 0 mm - 564 W/m² -
1788689117 28.89° C 64% 1023.3 hPa 0 mm - 553 W/m² -
1788688535 28.89° C 65% 1023.3 hPa 0 mm - 540 W/m² -
1788687933 28.33° C 64% 1023.3 hPa 0 mm - 529 W/m² -
1788687330 28.89° C 65% 1023.2 hPa 0 mm - 517 W/m² -
1788686728 28.89° C 64% 1023.2 hPa 0 mm - 501 W/m² -
1788686125 27.78° C 65% 1023.3 hPa 0 mm - 483 W/m² -

* Rain latest hour (hover to see other rain measurements)
** Current wind speed in m/s (hover to see current wind gust speed)